TimeMDT,TemperatureF,Dew PointF,Humidity,Sea Level PressureIn,VisibilityMPH,Wind Direction,Wind SpeedMPH,Gust SpeedMPH,PrecipitationIn,Events,Conditions,WindDirDegrees,DateUTC
12:51 AM,69.1,53.1,57,29.81,10.0,SSW,5.8,-,N/A,,Clear,210,2013-07-04 06:51:00
1:51 AM,66.9,54.0,63,29.78,10.0,SSW,4.6,-,N/A,,Clear,200,2013-07-04 07:51:00
2:51 AM,68.0,53.1,59,29.76,10.0,WSW,6.9,-,N/A,,Clear,250,2013-07-04 08:51:00
3:51 AM,66.0,55.0,68,29.74,10.0,SSE,4.6,-,N/A,,Clear,160,2013-07-04 09:51:00
4:51 AM,66.0,53.1,63,29.74,10.0,SSE,6.9,-,N/A,,Clear,160,2013-07-04 10:51:00
5:51 AM,64.9,53.1,65,29.75,10.0,NNE,3.5,-,N/A,,Clear,20,2013-07-04 11:51:00
6:51 AM,66.9,51.1,57,29.80,10.0,East,8.1,-,N/A,,Clear,100,2013-07-04 12:51:00
7:51 AM,71.1,50.0,47,29.81,10.0,ESE,11.5,-,N/A,,Clear,120,2013-07-04 13:51:00
8:51 AM,73.0,48.9,42,29.81,10.0,SE,12.7,-,N/A,,Clear,140,2013-07-04 14:51:00
9:51 AM,75.9,48.9,38,29.82,10.0,South,10.4,17.3,N/A,,Clear,180,2013-07-04 15:51:00
10:51 AM,77.0,50.0,39,29.82,10.0,South,9.2,-,N/A,,Clear,180,2013-07-04 16:51:00
11:51 AM,81.0,50.0,34,29.81,10.0,SSE,11.5,-,N/A,,Clear,160,2013-07-04 17:51:00
12:51 PM,82.9,51.1,33,29.80,10.0,South,8.1,-,N/A,,Clear,180,2013-07-04 18:51:00
1:51 PM,87.1,51.1,29,29.77,10.0,South,10.4,-,N/A,,Clear,190,2013-07-04 19:51:00
2:51 PM,90.0,51.1,26,29.74,10.0,South,6.9,-,N/A,,Clear,190,2013-07-04 20:51:00
3:51 PM,90.0,48.9,24,29.73,10.0,ESE,5.8,-,N/A,,Clear,120,2013-07-04 21:51:00
4:51 PM,91.0,51.1,25,29.70,10.0,SSW,5.8,-,N/A,,Clear,200,2013-07-04 22:51:00
5:51 PM,91.0,50.0,24,29.70,10.0,South,5.8,-,N/A,,Clear,190,2013-07-04 23:51:00
6:51 PM,91.0,48.9,23,29.69,10.0,South,6.9,-,N/A,,Clear,180,2013-07-05 00:51:00
7:51 PM,88.0,48.9,26,29.70,10.0,SE,6.9,-,N/A,,Clear,140,2013-07-05 01:51:00
8:51 PM,84.0,50.0,31,29.73,10.0,SSE,13.8,-,N/A,,Partly Cloudy,160,2013-07-05 02:51:00
9:51 PM,80.1,52.0,38,29.76,10.0,SSE,13.8,-,N/A,,Clear,160,2013-07-05 03:51:00
10:51 PM,78.1,52.0,40,29.77,10.0,SSE,9.2,-,N/A,,Clear,160,2013-07-05 04:51:00
11:51 PM,75.0,53.1,46,29.77,10.0,South,8.1,-,N/A,,Clear,170,2013-07-05 05:51:00